Year,Month,Day,Hour,Minute,Value (Times are PST for temperature in C)
2019,05,26,00,00,12.80
2019,05,26,00,01,12.80
2019,05,26,00,02,12.80
2019,05,26,00,03,12.80
2019,05,26,00,04,12.80
2019,05,26,00,05,12.70
2019,05,26,00,06,12.70
2019,05,26,00,07,12.70
2019,05,26,00,08,12.70
2019,05,26,00,09,12.60
2019,05,26,00,10,12.60
2019,05,26,00,11,12.60
2019,05,26,00,12,12.60
2019,05,26,00,13,12.50
2019,05,26,00,14,12.60
2019,05,26,00,15,12.50
2019,05,26,00,16,12.50
2019,05,26,00,17,12.40
2019,05,26,00,18,12.40
2019,05,26,00,19,12.40
2019,05,26,00,20,12.40
2019,05,26,00,21,12.40
2019,05,26,00,22,12.40
2019,05,26,00,23,12.40
2019,05,26,00,24,12.30
2019,05,26,00,25,12.30
2019,05,26,00,26,12.30
2019,05,26,00,27,12.30
2019,05,26,00,28,12.30
2019,05,26,00,29,12.30
2019,05,26,00,30,12.30
2019,05,26,00,31,12.30
2019,05,26,00,32,12.30
2019,05,26,00,33,12.20
2019,05,26,00,34,12.20
2019,05,26,00,35,12.20
2019,05,26,00,36,12.20
2019,05,26,00,37,12.20
2019,05,26,00,38,12.20
2019,05,26,00,39,12.20
2019,05,26,00,40,12.20
2019,05,26,00,41,12.20
2019,05,26,00,42,12.20
2019,05,26,00,43,12.20
2019,05,26,00,44,12.20
2019,05,26,00,45,12.20
2019,05,26,00,46,12.20
2019,05,26,00,47,12.10
2019,05,26,00,48,12.10
2019,05,26,00,49,12.10
2019,05,26,00,50,12.10
2019,05,26,00,51,12.10
2019,05,26,00,52,12.00
2019,05,26,00,53,12.00
2019,05,26,00,54,12.00
2019,05,26,00,55,12.00
2019,05,26,00,56,12.00
2019,05,26,00,57,12.00
2019,05,26,00,58,12.00
2019,05,26,00,59,12.00
2019,05,26,01,00,12.00
2019,05,26,01,01,12.00
2019,05,26,01,02,12.00
2019,05,26,01,03,12.00
2019,05,26,01,04,12.00
2019,05,26,01,05,12.00
2019,05,26,01,06,12.00
2019,05,26,01,07,12.10
2019,05,26,01,08,12.00
2019,05,26,01,09,12.00
2019,05,26,01,10,12.00
2019,05,26,01,11,11.90
2019,05,26,01,12,11.90
2019,05,26,01,13,11.90
2019,05,26,01,14,11.90
2019,05,26,01,15,11.80
2019,05,26,01,16,11.80
2019,05,26,01,17,11.80
2019,05,26,01,18,11.80
2019,05,26,01,19,11.80
2019,05,26,01,20,11.80
2019,05,26,01,21,11.70
2019,05,26,01,22,11.70
2019,05,26,01,23,11.70
2019,05,26,01,24,11.70
2019,05,26,01,25,11.60
2019,05,26,01,26,11.60
2019,05,26,01,27,11.60
2019,05,26,01,28,11.50
2019,05,26,01,29,11.50
2019,05,26,01,30,11.50
2019,05,26,01,31,11.40
2019,05,26,01,32,11.40
2019,05,26,01,33,11.40
2019,05,26,01,34,11.40
2019,05,26,01,35,11.40
2019,05,26,01,36,11.30
2019,05,26,01,37,11.30
2019,05,26,01,38,11.30
2019,05,26,01,39,11.30
2019,05,26,01,40,11.30
2019,05,26,01,41,11.30
2019,05,26,01,42,11.20
2019,05,26,01,43,11.20
2019,05,26,01,44,11.20
2019,05,26,01,45,11.20
2019,05,26,01,46,11.20
2019,05,26,01,47,11.20
2019,05,26,01,48,11.20
2019,05,26,01,49,11.10
2019,05,26,01,50,11.10
2019,05,26,01,51,11.10
2019,05,26,01,52,11.10
2019,05,26,01,53,11.10
2019,05,26,01,54,11.00
2019,05,26,01,55,11.00
2019,05,26,01,56,11.00
2019,05,26,01,57,11.00
2019,05,26,01,58,11.00
2019,05,26,01,59,11.00
2019,05,26,02,00,11.00
2019,05,26,02,01,11.10
2019,05,26,02,02,11.10
2019,05,26,02,03,11.10
2019,05,26,02,04,11.10
2019,05,26,02,05,11.10
2019,05,26,02,06,11.00
2019,05,26,02,07,11.00
2019,05,26,02,08,11.00
2019,05,26,02,09,11.00
2019,05,26,02,10,11.00
2019,05,26,02,11,11.00
2019,05,26,02,12,11.00
2019,05,26,02,13,10.90
2019,05,26,02,14,10.90
2019,05,26,02,15,10.90
2019,05,26,02,16,10.90
2019,05,26,02,17,10.90
2019,05,26,02,18,10.90
2019,05,26,02,19,10.90
2019,05,26,02,20,10.90
2019,05,26,02,21,10.90
2019,05,26,02,22,10.80
2019,05,26,02,23,10.80
2019,05,26,02,24,10.80
2019,05,26,02,25,10.80
2019,05,26,02,26,10.80
2019,05,26,02,27,10.80
2019,05,26,02,28,10.80
2019,05,26,02,29,10.90
2019,05,26,02,30,10.90
2019,05,26,02,31,10.90
2019,05,26,02,32,10.90
2019,05,26,02,33,10.90
2019,05,26,02,34,10.90
2019,05,26,02,35,10.90
2019,05,26,02,36,10.90
2019,05,26,02,37,10.90
2019,05,26,02,38,10.90
2019,05,26,02,39,10.90
2019,05,26,02,40,10.90
2019,05,26,02,41,10.90
2019,05,26,02,42,10.90
2019,05,26,02,43,10.90
2019,05,26,02,44,10.90
2019,05,26,02,45,10.90
2019,05,26,02,46,10.90
2019,05,26,02,47,10.90
2019,05,26,02,48,10.90
2019,05,26,02,49,10.90
2019,05,26,02,50,10.90
2019,05,26,02,51,10.90
2019,05,26,02,52,10.90
2019,05,26,02,53,11.00
2019,05,26,02,54,11.00
2019,05,26,02,55,11.00
2019,05,26,02,56,11.00
2019,05,26,02,57,11.00
2019,05,26,02,58,11.00
2019,05,26,02,59,11.00
2019,05,26,03,00,11.00
2019,05,26,03,01,10.90
2019,05,26,03,02,10.90
2019,05,26,03,03,10.90
2019,05,26,03,04,10.90
2019,05,26,03,05,10.90
2019,05,26,03,06,10.90
2019,05,26,03,07,10.80
2019,05,26,03,08,10.80
2019,05,26,03,09,10.80
2019,05,26,03,10,10.80
2019,05,26,03,11,10.70
2019,05,26,03,12,10.70
2019,05,26,03,13,10.70
2019,05,26,03,14,10.70
2019,05,26,03,15,10.60
2019,05,26,03,16,10.60
2019,05,26,03,17,10.70
2019,05,26,03,18,10.70
2019,05,26,03,19,10.70
2019,05,26,03,20,10.70
2019,05,26,03,21,10.70
2019,05,26,03,22,10.70
2019,05,26,03,23,10.70
2019,05,26,03,24,10.70
2019,05,26,03,25,10.70
2019,05,26,03,26,10.70
2019,05,26,03,27,10.70
2019,05,26,03,28,10.70
2019,05,26,03,29,10.60
2019,05,26,03,30,10.60
2019,05,26,03,31,10.70
2019,05,26,03,32,10.60
2019,05,26,03,33,10.60
2019,05,26,03,34,10.70
2019,05,26,03,35,10.70
2019,05,26,03,36,10.70
2019,05,26,03,37,10.70
2019,05,26,03,38,10.70
2019,05,26,03,39,10.70
2019,05,26,03,40,10.80
2019,05,26,03,41,10.80
2019,05,26,03,42,10.80
2019,05,26,03,43,10.80
2019,05,26,03,44,10.80
2019,05,26,03,45,10.80
2019,05,26,03,46,10.80
2019,05,26,03,47,10.80
2019,05,26,03,48,10.80
2019,05,26,03,49,10.80
2019,05,26,03,50,10.80
2019,05,26,03,51,10.90
2019,05,26,03,52,10.90
2019,05,26,03,53,10.90
2019,05,26,03,54,10.90
2019,05,26,03,55,10.90
2019,05,26,03,56,11.00
2019,05,26,03,57,11.00
2019,05,26,03,58,11.00
2019,05,26,03,59,11.10
2019,05,26,04,00,11.10
2019,05,26,04,01,11.10
2019,05,26,04,02,11.20
2019,05,26,04,03,11.20
2019,05,26,04,04,11.30
2019,05,26,04,05,11.30
2019,05,26,04,06,11.40
2019,05,26,04,07,11.40
2019,05,26,04,08,11.50
2019,05,26,04,09,11.60
2019,05,26,04,10,11.70
2019,05,26,04,11,11.80
2019,05,26,04,12,11.90
2019,05,26,04,13,12.00
2019,05,26,04,14,12.00
2019,05,26,04,15,12.10
2019,05,26,04,16,12.20
2019,05,26,04,17,12.20
2019,05,26,04,18,12.20
2019,05,26,04,19,12.30
2019,05,26,04,20,12.30
2019,05,26,04,21,12.30
2019,05,26,04,22,12.30
2019,05,26,04,23,12.30
2019,05,26,04,24,12.30
2019,05,26,04,25,12.30
2019,05,26,04,26,12.30
2019,05,26,04,27,12.30
2019,05,26,04,28,12.30
2019,05,26,04,29,12.30
2019,05,26,04,30,12.30
2019,05,26,04,31,12.30
2019,05,26,04,32,12.30
2019,05,26,04,33,12.30
2019,05,26,04,34,12.30
2019,05,26,04,35,12.30
2019,05,26,04,36,12.30
2019,05,26,04,37,12.30
2019,05,26,04,38,12.30
2019,05,26,04,39,12.30
2019,05,26,04,40,12.30
2019,05,26,04,41,12.20
2019,05,26,04,42,12.20
2019,05,26,04,43,12.30
2019,05,26,04,44,12.30
2019,05,26,04,45,12.30
2019,05,26,04,46,12.30
2019,05,26,04,47,12.30
2019,05,26,04,48,12.30
2019,05,26,04,49,12.30
2019,05,26,04,50,12.30
2019,05,26,04,51,12.30
2019,05,26,04,52,12.30
2019,05,26,04,53,12.30
2019,05,26,04,54,12.30
2019,05,26,04,55,12.30
2019,05,26,04,56,12.30
2019,05,26,04,57,12.30
2019,05,26,04,58,12.30
2019,05,26,04,59,12.20
2019,05,26,05,00,12.20
2019,05,26,05,01,12.10
2019,05,26,05,02,12.10
2019,05,26,05,03,12.00
2019,05,26,05,04,12.00
2019,05,26,05,05,12.00
2019,05,26,05,06,12.00
2019,05,26,05,07,12.00
2019,05,26,05,08,12.00
2019,05,26,05,09,12.00
2019,05,26,05,10,12.10
2019,05,26,05,11,12.10
2019,05,26,05,12,12.20
2019,05,26,05,13,12.20
2019,05,26,05,14,12.20
2019,05,26,05,15,12.10
2019,05,26,05,16,12.10
2019,05,26,05,17,12.10
2019,05,26,05,18,12.00
2019,05,26,05,19,12.00
2019,05,26,05,20,12.00
2019,05,26,05,21,12.00
2019,05,26,05,22,12.00
2019,05,26,05,23,12.10
2019,05,26,05,24,12.00
2019,05,26,05,25,12.00
2019,05,26,05,26,12.00
2019,05,26,05,27,11.90
2019,05,26,05,28,11.90
2019,05,26,05,29,11.90
2019,05,26,05,30,11.90
2019,05,26,05,31,11.80
2019,05,26,05,32,11.80
2019,05,26,05,33,11.80
2019,05,26,05,34,11.70
2019,05,26,05,35,11.70
2019,05,26,05,36,11.70
2019,05,26,05,37,11.70
2019,05,26,05,38,11.70
2019,05,26,05,39,11.70
2019,05,26,05,40,11.70
2019,05,26,05,41,11.80
2019,05,26,05,42,11.80
2019,05,26,05,43,11.80
2019,05,26,05,44,11.90
2019,05,26,05,45,11.90
2019,05,26,05,46,12.00
2019,05,26,05,47,12.00
2019,05,26,05,48,12.00
2019,05,26,05,49,12.10
2019,05,26,05,50,12.10
2019,05,26,05,51,12.10
2019,05,26,05,52,12.20
2019,05,26,05,53,12.20
2019,05,26,05,54,12.20
2019,05,26,05,55,12.30
2019,05,26,05,56,12.30
2019,05,26,05,57,12.30
2019,05,26,05,58,12.30
2019,05,26,05,59,12.40
2019,05,26,06,00,12.40
2019,05,26,06,01,12.40
2019,05,26,06,02,12.40
2019,05,26,06,03,12.50
2019,05,26,06,04,12.50
2019,05,26,06,05,12.50
2019,05,26,06,06,12.60
2019,05,26,06,07,12.60
2019,05,26,06,08,12.60
2019,05,26,06,09,12.60
2019,05,26,06,10,12.70
2019,05,26,06,11,12.70
2019,05,26,06,12,12.70
2019,05,26,06,13,12.70
2019,05,26,06,14,12.70
2019,05,26,06,15,12.70
2019,05,26,06,16,12.70
2019,05,26,06,17,12.70
2019,05,26,06,18,12.70
2019,05,26,06,19,12.70
2019,05,26,06,20,12.60
2019,05,26,06,21,12.60
2019,05,26,06,22,12.50
2019,05,26,06,23,12.50
2019,05,26,06,24,12.50
2019,05,26,06,25,12.50
2019,05,26,06,26,12.50
2019,05,26,06,27,12.40
2019,05,26,06,28,12.50
2019,05,26,06,29,12.50
2019,05,26,06,30,12.50
2019,05,26,06,31,12.60
2019,05,26,06,32,12.60
2019,05,26,06,33,12.60
2019,05,26,06,34,12.70
2019,05,26,06,35,12.70
2019,05,26,06,36,12.80
2019,05,26,06,37,12.80
2019,05,26,06,38,12.90
2019,05,26,06,39,13.00
2019,05,26,06,40,13.00
2019,05,26,06,41,13.10
2019,05,26,06,42,13.10
2019,05,26,06,43,13.20
2019,05,26,06,44,13.20
2019,05,26,06,45,13.20
2019,05,26,06,46,13.30
2019,05,26,06,47,13.30
2019,05,26,06,48,13.40
2019,05,26,06,49,13.40
2019,05,26,06,50,13.40
2019,05,26,06,51,13.50
2019,05,26,06,52,13.60
2019,05,26,06,53,13.60
2019,05,26,06,54,13.60
2019,05,26,06,55,13.70
2019,05,26,06,56,13.70
2019,05,26,06,57,13.70
2019,05,26,06,58,13.70
2019,05,26,06,59,13.80
2019,05,26,07,00,13.80
2019,05,26,07,01,13.80
2019,05,26,07,02,13.80
2019,05,26,07,03,13.90
2019,05,26,07,04,13.90
2019,05,26,07,05,13.90
2019,05,26,07,06,14.00
2019,05,26,07,07,14.00
2019,05,26,07,08,14.00
2019,05,26,07,09,14.10
2019,05,26,07,10,14.10
2019,05,26,07,11,14.10
2019,05,26,07,12,14.10
2019,05,26,07,13,14.10
2019,05,26,07,14,14.20
2019,05,26,07,15,14.20
2019,05,26,07,16,14.20
2019,05,26,07,17,14.20
2019,05,26,07,18,14.30
2019,05,26,07,19,14.30
2019,05,26,07,20,14.30
2019,05,26,07,21,14.30
2019,05,26,07,22,14.40
2019,05,26,07,23,14.40
2019,05,26,07,24,14.40
2019,05,26,07,25,14.50
2019,05,26,07,26,14.50
2019,05,26,07,27,14.60
2019,05,26,07,28,14.60
2019,05,26,07,29,14.60
2019,05,26,07,30,14.70
2019,05,26,07,31,14.70
2019,05,26,07,32,14.70
2019,05,26,07,33,14.80
2019,05,26,07,34,14.80
2019,05,26,07,35,14.80
2019,05,26,07,36,14.80
2019,05,26,07,37,14.90
2019,05,26,07,38,14.90
2019,05,26,07,39,15.00
2019,05,26,07,40,15.00
2019,05,26,07,41,15.10
2019,05,26,07,42,15.10
2019,05,26,07,43,15.10
2019,05,26,07,44,15.20
2019,05,26,07,45,15.20
2019,05,26,07,46,15.20
2019,05,26,07,47,15.30
2019,05,26,07,48,15.30
2019,05,26,07,49,15.40
2019,05,26,07,50,15.40
2019,05,26,07,51,15.50
2019,05,26,07,52,15.50
2019,05,26,07,53,15.60
2019,05,26,07,54,15.60
2019,05,26,07,55,15.70
2019,05,26,07,56,15.70
2019,05,26,07,57,15.80
2019,05,26,07,58,15.80
2019,05,26,07,59,15.90
2019,05,26,08,00,15.90
2019,05,26,08,01,15.90
2019,05,26,08,02,16.00
2019,05,26,08,03,16.00
2019,05,26,08,04,16.10
2019,05,26,08,05,16.10
2019,05,26,08,06,16.20
2019,05,26,08,07,16.20
2019,05,26,08,08,16.20
2019,05,26,08,09,16.30
2019,05,26,08,10,16.30
2019,05,26,08,11,16.30
2019,05,26,08,12,16.40
2019,05,26,08,13,16.40
2019,05,26,08,14,16.50
2019,05,26,08,15,16.50
2019,05,26,08,16,16.60
2019,05,26,08,17,16.60
2019,05,26,08,18,16.70
2019,05,26,08,19,16.80
2019,05,26,08,20,16.80
2019,05,26,08,21,16.90
2019,05,26,08,22,16.90
2019,05,26,08,23,16.90
2019,05,26,08,24,17.00
2019,05,26,08,25,17.00
2019,05,26,08,26,17.10
2019,05,26,08,27,17.10
2019,05,26,08,28,17.20
2019,05,26,08,29,17.20
2019,05,26,08,30,17.30
2019,05,26,08,31,17.30
2019,05,26,08,32,17.30
2019,05,26,08,33,17.40
2019,05,26,08,34,17.40
2019,05,26,08,35,17.50
2019,05,26,08,36,17.50
2019,05,26,08,37,17.60
2019,05,26,08,38,17.60
2019,05,26,08,39,17.60
2019,05,26,08,40,17.60
2019,05,26,08,41,17.70
2019,05,26,08,42,17.80
2019,05,26,08,43,17.80
2019,05,26,08,44,17.80
2019,05,26,08,45,17.90
2019,05,26,08,46,17.90
2019,05,26,08,47,17.90
2019,05,26,08,48,17.90
2019,05,26,08,49,17.90
2019,05,26,08,50,18.00
2019,05,26,08,51,18.10
2019,05,26,08,52,18.10
2019,05,26,08,53,18.10
2019,05,26,08,54,18.20
2019,05,26,08,55,18.20
2019,05,26,08,56,18.20
2019,05,26,08,57,18.30
2019,05,26,08,58,18.30
2019,05,26,08,59,18.40
2019,05,26,09,00,18.40
2019,05,26,09,01,18.40
2019,05,26,09,02,18.40
2019,05,26,09,03,18.40
2019,05,26,09,04,18.50
2019,05,26,09,05,18.50
2019,05,26,09,06,18.60
2019,05,26,09,07,18.60
2019,05,26,09,08,18.70
2019,05,26,09,09,18.70
2019,05,26,09,10,18.70
2019,05,26,09,11,18.70
2019,05,26,09,12,18.70
2019,05,26,09,13,18.70
2019,05,26,09,14,18.70
2019,05,26,09,15,18.70
2019,05,26,09,16,18.70
2019,05,26,09,17,18.70
2019,05,26,09,18,18.70
2019,05,26,09,19,18.70
2019,05,26,09,20,18.70
2019,05,26,09,21,18.70
2019,05,26,09,22,18.70
2019,05,26,09,23,18.70
2019,05,26,09,24,18.60
2019,05,26,09,25,18.60
2019,05,26,09,26,18.60
2019,05,26,09,27,18.70
2019,05,26,09,28,18.70
2019,05,26,09,29,18.70
2019,05,26,09,30,18.60
2019,05,26,09,31,18.60
2019,05,26,09,32,18.60
2019,05,26,09,33,18.70
2019,05,26,09,34,18.80
2019,05,26,09,35,18.80
2019,05,26,09,36,18.90
2019,05,26,09,37,19.00
2019,05,26,09,38,19.10
2019,05,26,09,39,19.20
2019,05,26,09,40,19.30
2019,05,26,09,41,19.30
2019,05,26,09,42,19.40
2019,05,26,09,43,19.50
2019,05,26,09,44,19.60
2019,05,26,09,45,19.70
2019,05,26,09,46,19.70
2019,05,26,09,47,19.70
2019,05,26,09,48,19.70
2019,05,26,09,49,19.70
2019,05,26,09,50,19.70
2019,05,26,09,51,19.70
2019,05,26,09,52,19.80
2019,05,26,09,53,19.80
2019,05,26,09,54,19.90
2019,05,26,09,55,20.00
2019,05,26,09,56,20.00
2019,05,26,09,57,20.10
2019,05,26,09,58,20.20
2019,05,26,09,59,20.20
2019,05,26,10,00,20.20
2019,05,26,10,01,20.20
2019,05,26,10,02,20.20
2019,05,26,10,03,20.20
2019,05,26,10,04,20.20
2019,05,26,10,05,20.20
2019,05,26,10,06,20.20
2019,05,26,10,07,20.30
2019,05,26,10,08,20.30
2019,05,26,10,09,20.30
2019,05,26,10,10,20.30
2019,05,26,10,11,20.30
2019,05,26,10,12,20.30
2019,05,26,10,13,20.30
2019,05,26,10,14,20.30
2019,05,26,10,15,20.30
2019,05,26,10,16,20.30
2019,05,26,10,17,20.30
2019,05,26,10,18,20.30
2019,05,26,10,19,20.40
2019,05,26,10,20,20.50
2019,05,26,10,21,20.50
2019,05,26,10,22,20.60
2019,05,26,10,23,20.70
2019,05,26,10,24,20.80
2019,05,26,10,25,20.90
2019,05,26,10,26,20.90
2019,05,26,10,27,20.90
2019,05,26,10,28,20.90
2019,05,26,10,29,20.90
2019,05,26,10,30,20.90
2019,05,26,10,31,20.80
2019,05,26,10,32,20.80
2019,05,26,10,33,20.80
2019,05,26,10,34,20.80
2019,05,26,10,35,20.80
2019,05,26,10,36,20.90
2019,05,26,10,37,20.90
2019,05,26,10,38,20.90
2019,05,26,10,39,21.00
2019,05,26,10,40,21.10
2019,05,26,10,41,21.20
2019,05,26,10,42,21.30
2019,05,26,10,43,21.30
2019,05,26,10,44,21.40
2019,05,26,10,45,21.40
2019,05,26,10,46,21.40
2019,05,26,10,47,21.40
2019,05,26,10,48,21.40
2019,05,26,10,49,21.40
2019,05,26,10,50,21.30
2019,05,26,10,51,21.30
2019,05,26,10,52,21.20
2019,05,26,10,53,21.30
2019,05,26,10,54,21.30
2019,05,26,10,55,21.20
2019,05,26,10,56,21.10
2019,05,26,10,57,21.00
2019,05,26,10,58,20.80
2019,05,26,10,59,20.60
2019,05,26,11,00,20.40
2019,05,26,11,01,20.30
2019,05,26,11,02,20.20
2019,05,26,11,03,20.10
2019,05,26,11,04,20.10
2019,05,26,11,05,20.10
2019,05,26,11,06,20.10
2019,05,26,11,07,20.10
2019,05,26,11,08,20.00
2019,05,26,11,09,19.90
2019,05,26,11,10,19.90
2019,05,26,11,11,19.80
2019,05,26,11,12,19.90
2019,05,26,11,13,19.90
2019,05,26,11,14,20.00
2019,05,26,11,15,20.00
2019,05,26,11,16,20.10
2019,05,26,11,17,20.20
2019,05,26,11,18,20.30
2019,05,26,11,19,20.40
2019,05,26,11,20,20.50
2019,05,26,11,21,20.60
2019,05,26,11,22,20.70
2019,05,26,11,23,20.70
2019,05,26,11,24,20.80
2019,05,26,11,25,20.80
2019,05,26,11,26,20.70
2019,05,26,11,27,20.70
2019,05,26,11,28,20.70
2019,05,26,11,29,20.70
2019,05,26,11,30,20.70
2019,05,26,11,31,20.60
2019,05,26,11,32,20.50
2019,05,26,11,33,20.50
2019,05,26,11,34,20.40
2019,05,26,11,35,20.40
2019,05,26,11,36,20.40
2019,05,26,11,37,20.50
2019,05,26,11,38,20.50
2019,05,26,11,39,20.60
2019,05,26,11,40,20.70
2019,05,26,11,41,20.70
2019,05,26,11,42,20.80
2019,05,26,11,43,20.90
2019,05,26,11,44,21.00
2019,05,26,11,45,21.20
2019,05,26,11,46,21.30
2019,05,26,11,47,21.30
2019,05,26,11,48,21.40
2019,05,26,11,49,21.40
2019,05,26,11,50,21.50
2019,05,26,11,51,21.50
2019,05,26,11,52,21.60
2019,05,26,11,53,21.60
2019,05,26,11,54,21.70
2019,05,26,11,55,21.80
2019,05,26,11,56,21.90
2019,05,26,11,57,21.90
2019,05,26,11,58,22.00
2019,05,26,11,59,22.10
2019,05,26,12,00,22.10
2019,05,26,12,01,22.30
2019,05,26,12,02,22.30
2019,05,26,12,03,22.30
2019,05,26,12,04,22.20
2019,05,26,12,05,22.20
2019,05,26,12,06,22.10
2019,05,26,12,07,22.10
2019,05,26,12,08,22.00
2019,05,26,12,09,22.00
2019,05,26,12,10,21.90
2019,05,26,12,11,21.90
2019,05,26,12,12,21.90
2019,05,26,12,13,22.00
2019,05,26,12,14,22.10
2019,05,26,12,15,22.20
2019,05,26,12,16,22.30
2019,05,26,12,17,22.50
2019,05,26,12,18,22.60
2019,05,26,12,19,22.70
2019,05,26,12,20,22.70
2019,05,26,12,21,22.80
2019,05,26,12,22,22.80
2019,05,26,12,23,22.80
2019,05,26,12,24,22.90
2019,05,26,12,25,23.00
2019,05,26,12,26,23.10
2019,05,26,12,27,23.20
2019,05,26,12,28,23.30
2019,05,26,12,29,23.40
2019,05,26,12,30,23.60
2019,05,26,12,31,23.70
2019,05,26,12,32,23.80
2019,05,26,12,33,23.90
2019,05,26,12,34,24.00
2019,05,26,12,35,24.10
2019,05,26,12,36,24.20
2019,05,26,12,37,24.30
2019,05,26,12,38,24.40
2019,05,26,12,39,24.60
2019,05,26,12,40,24.70
2019,05,26,12,41,24.90
2019,05,26,12,42,25.00
2019,05,26,12,43,25.00
2019,05,26,12,44,25.00
2019,05,26,12,45,24.90
2019,05,26,12,46,24.90
2019,05,26,12,47,24.90
2019,05,26,12,48,24.90
2019,05,26,12,49,24.90
2019,05,26,12,50,24.90
2019,05,26,12,51,24.90
2019,05,26,12,52,24.90
2019,05,26,12,53,24.90
2019,05,26,12,54,24.90
2019,05,26,12,55,24.80
2019,05,26,12,56,24.70
2019,05,26,12,57,24.60
2019,05,26,12,58,24.60
2019,05,26,12,59,24.50
2019,05,26,13,00,24.40
2019,05,26,13,01,24.30
2019,05,26,13,02,24.20
2019,05,26,13,03,24.10
2019,05,26,13,04,24.00
2019,05,26,13,05,24.00
2019,05,26,13,06,24.00
2019,05,26,13,07,24.00
2019,05,26,13,08,24.10
2019,05,26,13,09,24.10
2019,05,26,13,10,24.20
2019,05,26,13,11,24.20
2019,05,26,13,12,24.20
2019,05,26,13,13,24.30
2019,05,26,13,14,24.40
2019,05,26,13,15,24.50
2019,05,26,13,16,24.50
2019,05,26,13,17,24.60
2019,05,26,13,18,24.70
2019,05,26,13,19,24.70
2019,05,26,13,20,24.70
2019,05,26,13,21,24.70
2019,05,26,13,22,24.60
2019,05,26,13,23,24.60
2019,05,26,13,24,24.50
2019,05,26,13,25,24.50
2019,05,26,13,26,24.50
2019,05,26,13,27,24.40
2019,05,26,13,28,24.40
2019,05,26,13,29,24.40
2019,05,26,13,30,24.40
2019,05,26,13,31,24.40
2019,05,26,13,32,24.40
2019,05,26,13,33,24.40
2019,05,26,13,34,24.40
2019,05,26,13,35,24.30
2019,05,26,13,36,24.30
2019,05,26,13,37,24.30
2019,05,26,13,38,24.20
2019,05,26,13,39,24.20
2019,05,26,13,40,24.20
2019,05,26,13,41,24.10
2019,05,26,13,42,24.10
2019,05,26,13,43,24.20
2019,05,26,13,44,24.20
2019,05,26,13,45,24.30
2019,05,26,13,46,24.30
2019,05,26,13,47,24.40
2019,05,26,13,48,24.50
2019,05,26,13,49,24.50
2019,05,26,13,50,24.60
2019,05,26,13,51,24.60
2019,05,26,13,52,24.70
2019,05,26,13,53,24.80
2019,05,26,13,54,24.90
2019,05,26,13,55,25.00
2019,05,26,13,56,25.10
2019,05,26,13,57,25.10
2019,05,26,13,58,25.20
2019,05,26,13,59,25.30
2019,05,26,14,00,25.40
2019,05,26,14,01,25.50
2019,05,26,14,02,25.50
2019,05,26,14,03,25.60
2019,05,26,14,04,25.70
2019,05,26,14,05,25.70
2019,05,26,14,06,25.80
2019,05,26,14,07,25.80
2019,05,26,14,08,25.90
2019,05,26,14,09,26.00
2019,05,26,14,10,26.00
2019,05,26,14,11,26.10
2019,05,26,14,12,26.30
2019,05,26,14,13,26.40
2019,05,26,14,14,26.50
2019,05,26,14,15,26.60
2019,05,26,14,16,26.70
2019,05,26,14,17,26.80
2019,05,26,14,18,26.80
2019,05,26,14,19,26.80
2019,05,26,14,20,26.80
2019,05,26,14,21,26.80
2019,05,26,14,22,26.80
2019,05,26,14,23,26.90
2019,05,26,14,24,27.00
2019,05,26,14,25,27.10
2019,05,26,14,26,27.20
2019,05,26,14,27,27.30
2019,05,26,14,28,27.30
2019,05,26,14,29,27.40
2019,05,26,14,30,27.30
2019,05,26,14,31,27.30
2019,05,26,14,32,27.30
2019,05,26,14,33,27.30
2019,05,26,14,34,27.40
2019,05,26,14,35,27.40
2019,05,26,14,36,27.50
2019,05,26,14,37,27.50
2019,05,26,14,38,27.60
2019,05,26,14,39,27.70
2019,05,26,14,40,27.80
2019,05,26,14,41,27.80
2019,05,26,14,42,27.80
2019,05,26,14,43,27.80
2019,05,26,14,44,27.90
2019,05,26,14,45,27.90
2019,05,26,14,46,28.00
2019,05,26,14,47,28.10
2019,05,26,14,48,28.20
2019,05,26,14,49,28.10
2019,05,26,14,50,28.10
2019,05,26,14,51,28.00
2019,05,26,14,52,28.00
2019,05,26,14,53,27.90
2019,05,26,14,54,27.80
2019,05,26,14,55,27.80
2019,05,26,14,56,27.90
2019,05,26,14,57,27.90
2019,05,26,14,58,27.90
2019,05,26,14,59,28.00
2019,05,26,15,00,28.10
2019,05,26,15,01,28.20
2019,05,26,15,02,28.20
2019,05,26,15,03,28.30
2019,05,26,15,04,28.30
2019,05,26,15,05,28.40
2019,05,26,15,06,28.40
2019,05,26,15,07,28.40
2019,05,26,15,08,28.50
2019,05,26,15,09,28.50
2019,05,26,15,10,28.60
2019,05,26,15,11,28.60
2019,05,26,15,12,28.60
2019,05,26,15,13,28.60
2019,05,26,15,14,28.60
2019,05,26,15,15,28.60
2019,05,26,15,16,28.60
2019,05,26,15,17,28.50
2019,05,26,15,18,28.40
2019,05,26,15,19,28.30
2019,05,26,15,20,28.10
2019,05,26,15,21,28.10
2019,05,26,15,22,28.00
2019,05,26,15,23,28.00
2019,05,26,15,24,28.10
2019,05,26,15,25,28.20
2019,05,26,15,26,28.20
2019,05,26,15,27,28.20
2019,05,26,15,28,28.10
2019,05,26,15,29,28.10
2019,05,26,15,30,28.00
2019,05,26,15,31,28.00
2019,05,26,15,32,28.10
2019,05,26,15,33,28.20
2019,05,26,15,34,28.30
2019,05,26,15,35,28.30
2019,05,26,15,36,28.30
2019,05,26,15,37,28.40
2019,05,26,15,38,28.40
2019,05,26,15,39,28.50
2019,05,26,15,40,28.60
2019,05,26,15,41,28.60
2019,05,26,15,42,28.60
2019,05,26,15,43,28.60
2019,05,26,15,44,28.60
2019,05,26,15,45,28.60
2019,05,26,15,46,28.60
2019,05,26,15,47,28.70
2019,05,26,15,48,28.80
2019,05,26,15,49,28.90
2019,05,26,15,50,28.90
2019,05,26,15,51,28.90
2019,05,26,15,52,29.00
2019,05,26,15,53,28.90
2019,05,26,15,54,28.80
2019,05,26,15,55,28.70
2019,05,26,15,56,28.70
2019,05,26,15,57,28.60
2019,05,26,15,58,28.60
2019,05,26,15,59,28.50
2019,05,26,16,00,28.40
2019,05,26,16,01,28.30
2019,05,26,16,02,28.30
2019,05,26,16,03,28.30
2019,05,26,16,04,28.40
2019,05,26,16,05,28.50
2019,05,26,16,06,28.50
2019,05,26,16,07,28.50
2019,05,26,16,08,28.50
2019,05,26,16,09,28.50
2019,05,26,16,10,28.40
2019,05,26,16,11,28.40
2019,05,26,16,12,28.30
2019,05,26,16,13,28.30
2019,05,26,16,14,28.30
2019,05,26,16,15,28.30
2019,05,26,16,16,28.40
2019,05,26,16,17,28.50
2019,05,26,16,18,28.50
2019,05,26,16,19,28.60
2019,05,26,16,20,28.60
2019,05,26,16,21,28.50
2019,05,26,16,22,28.50
2019,05,26,16,23,28.40
2019,05,26,16,24,28.50
2019,05,26,16,25,28.50
2019,05,26,16,26,28.50
2019,05,26,16,27,28.50
2019,05,26,16,28,28.50
2019,05,26,16,29,28.50
2019,05,26,16,30,28.50
2019,05,26,16,31,28.50
2019,05,26,16,32,28.50
2019,05,26,16,33,28.50
2019,05,26,16,34,28.60
2019,05,26,16,35,28.50
2019,05,26,16,36,28.50
2019,05,26,16,37,28.50
2019,05,26,16,38,28.50
2019,05,26,16,39,28.60
2019,05,26,16,40,28.60
2019,05,26,16,41,28.70
2019,05,26,16,42,28.70
2019,05,26,16,43,28.70
2019,05,26,16,44,28.80
2019,05,26,16,45,28.90
2019,05,26,16,46,29.00
2019,05,26,16,47,29.10
2019,05,26,16,48,29.10
2019,05,26,16,49,29.10
2019,05,26,16,50,29.20
2019,05,26,16,51,29.20
2019,05,26,16,52,29.10
2019,05,26,16,53,29.10
2019,05,26,16,54,29.10
2019,05,26,16,55,29.10
2019,05,26,16,56,29.00
2019,05,26,16,57,29.00
2019,05,26,16,58,28.90
2019,05,26,16,59,28.80
2019,05,26,17,00,28.70
2019,05,26,17,01,28.60
2019,05,26,17,02,28.60
2019,05,26,17,03,28.60
2019,05,26,17,04,28.50
2019,05,26,17,05,28.50
2019,05,26,17,06,28.50
2019,05,26,17,07,28.40
2019,05,26,17,08,28.50
2019,05,26,17,09,28.50
2019,05,26,17,10,28.50
2019,05,26,17,11,28.40
2019,05,26,17,12,28.50
2019,05,26,17,13,28.50
2019,05,26,17,14,28.60
2019,05,26,17,15,28.60
2019,05,26,17,16,28.60
2019,05,26,17,17,28.60
2019,05,26,17,18,28.60
2019,05,26,17,19,28.60